Flag for Australia Weather past 2 weeks in Dubbo, New South Wales, Australia

Now
36 °F

Clear.


Feels Like: 29 °F
Forecast: 40 / 70 °F
Wind: 9 mph from Southeast

Location: Dubbo Airport

Current Time: Oct 2, 2014 at 3:08:27 AM

Latest Report: Oct 2, 2014 at 2:30 AM


Visibility: N/A

Pressure: 30.21 "Hg

Humidity: 81%

Dew point: 30 °F

Location of DubboLocation

Historic Weather in Dubbo — Graph

°F

Dubbo temperature yesterday

Maximum temperature yesterday: 66 °F (at 1:05 AM)
Minimum temperature yesterday: 43 °F (at 10:30 PM)
Average temperature yesterday: 57 °F

Past Weeks' High & Low Weather Summary

 TemperatureHumidityPressure
High88 °F (Sep 30, 2:30 PM)100% (Sep 17, 3:30 AM)30.45 "Hg (Sep 17, 3:30 AM)
Low32 °F (Sep 20, 4:00 AM)17% (Sep 20, 1:30 PM)29.86 "Hg (Sep 25, 2:00 PM)
Average58 °F58%30.12 "Hg
* Reported Sep 17 2:00 AM — Oct 2 2:00 AM, Dubbo, Weather by CustomWeather, © 2014

Note: Actual official high and low records may vary slightly from our data, if they occured in-between our weather recording intervals... More about our weather records

Advertising

Dubbo weather history for previous 24 hours

 ConditionsComfort  
Time TempWeatherWind HumidityBarometerVisibility
2:00 AM
Oct 2
37 °FClear.9 mph75%30.21 "HgN/A
1:30 AM37 °FClear.8 mph70%30.21 "HgN/A
1:00 AM41 °FClear.9 mph70%30.21 "HgN/A
12:30 AM39 °FClear.8 mph70%30.21 "Hg6 mi
12:00 AM39 °FClear.8 mph65%30.21 "HgN/A
11:00 PM
Oct 1
43 °FClear.8 mph57%30.21 "HgN/A
10:30 PM43 °FClear.8 mph61%30.18 "HgN/A
10:00 PM45 °FClear.9 mph53%30.18 "HgN/A
9:30 PM48 °FClear.8 mph46%30.18 "HgN/A
9:00 PM50 °FClear.9 mph43%30.18 "Hg4 mi
8:30 PM50 °FClear.8 mph43%30.18 "HgN/A
8:00 PM52 °FClear.8 mph38%30.18 "HgN/A
7:30 PM55 °FClear.10 mph33%30.18 "HgN/A
7:00 PM57 °FClear.12 mph31%30.18 "HgN/A
6:30 PM57 °FClear.12 mph29%30.15 "HgN/A
6:00 PM59 °FClear.12 mph29%30.15 "HgN/A
5:30 PM61 °FClear.14 mph27%30.12 "HgN/A
5:00 PM63 °FSunny.13 mph25%30.12 "HgN/A
4:30 PM64 °FSunny.15 mph22%30.12 "HgN/A
4:00 PM64 °FSunny.16 mph22%30.12 "HgN/A
3:30 PM66 °FSunny.17 mph22%30.12 "HgN/A
3:00 PM66 °FSunny.16 mph22%30.12 "HgN/A
2:30 PM66 °FSunny.13 mph24%30.12 "HgN/A
2:00 PM64 °FSunny.17 mph24%30.12 "HgN/A
1:30 PM64 °FSunny.18 mph24%30.12 "HgN/A
1:00 PM64 °FSunny.20 mph22%30.15 "Hg5 mi
12:00 PM63 °FSunny.17 mph25%30.15 "HgN/A
11:30 AM61 °FSunny.18 mph27%30.15 "HgN/A
11:00 AM63 °FSunny.15 mph30%30.15 "HgN/A
10:30 AM61 °FSunny.16 mph31%30.15 "HgN/A
10:00 AM59 °FSunny.20 mph34%30.15 "HgN/A
9:00 AM57 °FSunny.20 mph39%30.15 "HgN/A
8:30 AM55 °FSunny.20 mph44%30.15 "HgN/A
8:00 AM55 °FSunny.18 mph47%30.15 "Hg4 mi
7:30 AM54 °FSunny.15 mph54%30.12 "HgN/A
7:00 AM52 °FSunny.10 mph58%30.12 "HgN/A
6:00 AM50 °FSunny.9 mph62%30.09 "HgN/A
5:30 AM48 °FSunny.9 mph62%30.09 "HgN/A
5:00 AM52 °FSunny.10 mph47%30.07 "HgN/A
4:30 AM52 °FClear.10 mph38%30.07 "HgN/A
4:00 AM54 °FClear.10 mph35%30.04 "HgN/A
3:30 AM55 °FClear.17 mph36%30.04 "HgN/A
3:00 AM55 °FClear.16 mph59%30.04 "HgN/A
Weather by CustomWeather, © 2014

See weather overviewHow to use our weather pages